Location: Lac Echo
(45.9375°N, 75.4580°W)
Time: 05:52:47
(UTC-04:00)

Amateur Radio Satellites - All Passes

Search period start: 23 July 2014 05:22
Search period end: 24 July 2014 05:22
Location: Lac Echo, 45.9375°N, 75.4580°W

Satellite Date Start Highest point End Downlink Frequencies (MHz)
Time Altitude Azimuth
ISS 23 Jul 05:24:45 05:27:47 29° 358° (N) 05:30:48 145.800 FM
Sapphire 23 Jul 05:36:20 05:38:37 13° 334° (NNW) 05:40:55 437.095 MHz 1200 baud AX-25 AFSK
Uosat F 23 Jul 05:39:44 05:44:48 80° 287° (WNW) 05:49:48 435.120 FM
STRAND 1 23 Jul 05:50:02 05:54:18 27° 63° (ENE) 05:58:34 ?
KITSAT 1 23 Jul 05:54:18 05:55:47 11° 96° (E) 05:57:17 435.175 FM
Hamsat 23 Jul 05:57:59 06:00:19 14° 90° (E) 06:02:38 145.90 MHz
Lituanica SAT-1 23 Jul 06:11:06 06:13:18 64° 24° (NNE) 06:15:30 437.275 MHz beacon
TMSAT-1 23 Jul 06:17:01 06:19:20 13° 305° (NW) 06:21:39 436.925 FM
MaSat-1 23 Jul 06:42:31 06:46:18 19° 42° (NE) 06:50:04 437.345 MHz
AO-7 23 Jul 06:56:36 07:04:25 46° 300° (WNW) 07:12:11 29.400 - 29.500 MHz
ISS 23 Jul 07:01:46 07:05:02 44° 18° (NNE) 07:08:17 145.800 FM
JAS-1B 23 Jul 07:03:23 07:08:06 15° 322° (NW) 07:12:42 435.800 - 435.900 CW/SSB
JAS-2 23 Jul 07:14:27 07:20:49 60° 100° (E) 07:26:24 435.800 - 435.900 CW/SSB, 435.910 FM
Uosat F 23 Jul 07:20:39 07:22:46 13° 305° (NW) 07:24:53 435.120 FM
STRAND 1 23 Jul 07:28:21 07:33:16 45° 261° (W) 07:38:13 ?
Hamsat 23 Jul 07:32:27 07:36:40 59° 287° (WNW) 07:40:53 145.90 MHz
KITSAT 1 23 Jul 07:41:34 07:49:25 57° 115° (ESE) 07:57:18 435.175 FM
SO-67 23 Jul 07:42:40 07:45:42 27° 96° (E) 07:48:43 435.3500 MHz FM
Lituanica SAT-1 23 Jul 07:45:03 07:45:55 12° 223° (SW) 07:46:48 437.275 MHz beacon
MaSat-1 23 Jul 08:19:04 08:24:26 89° 62° (ENE) 08:29:39 437.345 MHz
Saudisat 1A 23 Jul 08:34:49 08:37:19 15° 110° (ESE) 08:39:49 436.775 MHz
ISS 23 Jul 08:38:34 08:41:46 41° 216° (SW) 08:44:57 145.800 FM
AO-7 23 Jul 08:51:40 08:55:08 13° 323° (NW) 08:58:37 29.400 - 29.500 MHz
JAS-2 23 Jul 09:00:12 09:05:22 26° 302° (WNW) 09:10:04 435.800 - 435.900 CW/SSB, 435.910 FM
HO-68 23 Jul 09:00:32 09:05:56 23° 91° (E) 09:11:18 435.675 MHz FM
Oscar 10/S400 23 Jul 09:02:02 09:37:45 12° 263° (W) 10:27:11 145.825 - 145.975 CW/USB, Beacon 145.810 USB
Sapphire 23 Jul 09:08:20 09:11:00 14° 28° (NNE) 09:13:39 437.095 MHz 1200 baud AX-25 AFSK
SO-67 23 Jul 09:16:02 09:18:38 20° 293° (WNW) 09:21:14 435.3500 MHz FM
KITSAT 1 23 Jul 09:37:29 09:45:07 43° 318° (NW) 09:52:48 435.175 FM
PCSat 23 Jul 09:41:51 09:45:52 20° 37° (NE) 09:49:52 145.825 MHz
MaSat-1 23 Jul 09:58:15 10:01:04 15° 260° (W) 10:03:49 437.345 MHz
Oscar 11 23 Jul 10:10:38 10:14:20 27° 95° (E) 10:18:00 145.825 FM, Beacon 2401.500 USB
Saudisat 1A 23 Jul 10:11:56 10:16:21 72° 308° (NW) 10:20:48 436.775 MHz
FUNcube-1 23 Jul 10:16:11 10:17:16 11° 88° (E) 10:18:22 145.950 - 145.970 MHz USB
HO-68 23 Jul 10:47:12 10:54:21 76° 290° (WNW) 11:01:28 435.675 MHz FM
Sapphire 23 Jul 10:50:32 10:55:48 48° 51° (NE) 11:01:02 437.095 MHz 1200 baud AX-25 AFSK
PCSat 23 Jul 11:24:35 11:30:04 88° 58° (ENE) 11:35:29 145.825 MHz
KITSAT 1 23 Jul 11:37:21 11:42:58 20° 345° (NNW) 11:48:36 435.175 FM
Oscar 11 23 Jul 11:46:41 11:50:32 32° 292° (WNW) 11:54:21 145.825 FM, Beacon 2401.500 USB
FUNcube-1 23 Jul 11:50:02 11:54:12 72° 285° (WNW) 11:58:21 145.950 - 145.970 MHz USB
Saudisat 1A 23 Jul 11:54:01 11:56:44 16° 329° (NNW) 11:59:27 436.775 MHz
JAS-1B 23 Jul 12:20:37 12:25:55 17° 41° (NE) 12:31:25 435.800 - 435.900 CW/SSB
Oscar 19 23 Jul 12:21:33 12:25:02 19° 59° (ENE) 12:28:32 437.125 CW, 437.150 USB
Sapphire 23 Jul 12:34:22 12:39:00 29° 250° (WSW) 12:43:37 437.095 MHz 1200 baud AX-25 AFSK
HO-68 23 Jul 12:36:25 12:40:57 18° 311° (NW) 12:45:29 435.675 MHz FM
Oscar 16 23 Jul 12:47:34 12:52:03 32° 65° (ENE) 12:56:32 437.025 USB, Beacon 2401.1428
ITAMSAT 1 23 Jul 12:56:26 13:00:04 20° 59° (ENE) 13:03:42 435.822 SSB
Gurwin Techsat 1B 23 Jul 13:05:06 13:05:13 10° 52° (NE) 13:05:19 435.225 FM
PCSat 23 Jul 13:09:51 13:12:42 15° 257° (WSW) 13:15:33 145.825 MHz
AO-27 23 Jul 13:13:07 13:17:25 27° 63° (ENE) 13:21:44 436.795 MHz FM
Uribyol 2 23 Jul 13:16:31 13:20:57 29° 64° (ENE) 13:25:23 436.500 FM
AO-Echo 23 Jul 13:25:37 13:30:19 33° 66° (ENE) 13:35:03 ?
SO-50 23 Jul 13:35:32 13:38:39 19° 111° (ESE) 13:41:48 436.795 FM
KITSAT 1 23 Jul 13:36:12 13:41:55 20° 16° (NNE) 13:47:37 435.175 FM
Oscar 19 23 Jul 13:58:48 14:03:53 67° 258° (WSW) 14:09:00 437.125 CW, 437.150 USB
JAS-1B 23 Jul 14:05:46 14:14:08 54° 64° (ENE) 14:23:32 435.800 - 435.900 CW/SSB
AO-7 23 Jul 14:15:57 14:21:45 21° 46° (NE) 14:27:32 29.400 - 29.500 MHz
TMSAT-1 23 Jul 14:19:20 14:23:56 31° 65° (ENE) 14:28:33 436.925 FM
RS-15 23 Jul 14:25:03 14:35:36 52° 113° (ESE) 14:45:57 29.354 - 29.394 USB, Beacon 29.352 USB
Oscar 16 23 Jul 14:26:37 14:31:19 37° 263° (W) 14:36:04 437.025 USB, Beacon 2401.1428
ITAMSAT 1 23 Jul 14:33:51 14:39:03 67° 258° (WSW) 14:44:17 435.822 SSB
Gurwin Techsat 1B 23 Jul 14:38:54 14:44:06 59° 71° (ENE) 14:49:21 435.225 FM
AO-27 23 Jul 14:51:41 14:56:42 46° 261° (W) 15:01:45 436.795 MHz FM
Uribyol 2 23 Jul 14:55:21 15:00:16 41° 262° (W) 15:05:12 436.500 FM
AO-Echo 23 Jul 15:04:07 15:08:59 37° 264° (W) 15:13:57 ?
SO-50 23 Jul 15:14:20 15:18:46 59° 310° (NW) 15:23:19 436.795 FM
Uosat F 23 Jul 15:17:53 15:22:01 26° 63° (ENE) 15:26:10 435.120 FM
KITSAT 1 23 Jul 15:31:57 15:39:41 45° 43° (NE) 15:47:21 435.175 FM
OPAL 23 Jul 15:46:37 15:48:24 12° 90° (E) 15:50:12 ?
JAS-1B 23 Jul 15:56:40 16:04:46 45° 266° (W) 16:13:57 435.800 - 435.900 CW/SSB
TMSAT-1 23 Jul 15:58:46 16:03:44 40° 263° (W) 16:08:43 436.925 FM
AO-7 23 Jul 16:04:55 16:13:15 76° 67° (ENE) 16:21:37 29.400 - 29.500 MHz
UOSAT-12 23 Jul 16:09:11 16:13:33 44° 119° (ESE) 16:18:01 437.025 FM, 437.400 FM
Gurwin Techsat 1B 23 Jul 16:20:36 16:24:29 20° 269° (W) 16:28:22 435.225 FM
RS-15 23 Jul 16:37:05 16:47:54 56° 318° (NW) 16:58:40 29.354 - 29.394 USB, Beacon 29.352 USB
Hamsat 23 Jul 16:54:23 16:56:42 15° 62° (ENE) 16:59:02 145.90 MHz
Uosat F 23 Jul 16:55:45 17:00:34 45° 261° (W) 17:05:26 435.120 FM
Saudisat 1A 23 Jul 16:57:20 17:01:14 29° 41° (NE) 17:05:05 436.775 MHz
SO-50 23 Jul 16:57:47 17:00:19 15° 332° (NNW) 17:02:52 436.795 FM
OPAL 23 Jul 17:22:55 17:27:59 88° 107° (ESE) 17:33:05 ?
JAS-2 23 Jul 17:27:06 17:34:16 41° 64° (ENE) 17:41:07 435.800 - 435.900 CW/SSB, 435.910 FM
KITSAT 1 23 Jul 17:27:29 17:35:16 54° 246° (WSW) 17:43:01 435.175 FM
UOSAT-12 23 Jul 17:49:43 17:53:51 31° 319° (NW) 17:58:04 437.025 FM, 437.400 FM
AO-7 23 Jul 18:00:03 18:06:48 27° 267° (W) 18:13:35 29.400 - 29.500 MHz
SO-67 23 Jul 18:19:14 18:21:19 15° 65° (ENE) 18:23:24 435.3500 MHz FM
Hamsat 23 Jul 18:28:05 18:32:13 61° 259° (W) 18:36:23 145.90 MHz
Saudisat 1A 23 Jul 18:36:46 18:40:57 43° 241° (WSW) 18:45:06 436.775 MHz
RS-15 23 Jul 18:54:01 19:03:15 30° 350° (N) 19:12:33 29.354 - 29.394 USB, Beacon 29.352 USB
Oscar 10/S400 23 Jul 19:01:48 19:12:51 17° 136° (SE) 19:26:38 145.825 - 145.975 CW/USB, Beacon 145.810 USB
OPAL 23 Jul 19:03:24 19:06:12 15° 305° (NW) 19:09:00 ?
JAS-2 23 Jul 19:11:32 19:19:07 51° 262° (W) 19:26:26 435.800 - 435.900 CW/SSB, 435.910 FM
HO-68 23 Jul 19:32:24 19:37:54 25° 54° (NE) 19:43:24 435.675 MHz FM
UOSAT-12 23 Jul 19:34:43 19:35:31 10° 342° (NNW) 19:36:20 437.025 FM, 437.400 FM
STRAND 1 23 Jul 19:36:15 19:41:15 51° 100° (E) 19:46:11 ?
SO-67 23 Jul 19:50:51 19:54:06 38° 262° (W) 19:57:23 435.3500 MHz FM
SO-50 23 Jul 20:24:10 20:25:52 12° 23° (NNE) 20:27:35 436.795 FM
Oscar 11 23 Jul 21:08:09 21:11:52 29° 67° (ENE) 21:15:37 145.825 FM, Beacon 2401.500 USB
RS-15 23 Jul 21:09:52 21:19:43 36° 24° (NNE) 21:29:44 29.354 - 29.394 USB, Beacon 29.352 USB
FUNcube-1 23 Jul 21:14:45 21:17:05 14° 61° (ENE) 21:19:24 145.950 - 145.970 MHz USB
STRAND 1 23 Jul 21:16:05 21:20:07 24° 298° (WNW) 21:24:08 ?
HO-68 23 Jul 21:17:42 21:24:53 80° 254° (WSW) 21:32:06 435.675 MHz FM
SO-50 23 Jul 22:03:17 22:07:44 39° 45° (NE) 22:12:13 436.795 FM
MaSat-1 23 Jul 22:14:10 22:17:19 23° 104° (ESE) 22:20:50 437.345 MHz
Oscar 11 23 Jul 22:44:17 22:48:02 29° 265° (W) 22:51:48 145.825 FM, Beacon 2401.500 USB
FUNcube-1 23 Jul 22:48:38 22:53:01 67° 258° (WSW) 22:57:18 145.950 - 145.970 MHz USB
UOSAT-12 23 Jul 22:56:59 23:00:11 18° 31° (NNE) 23:03:23 437.025 FM, 437.400 FM
HO-68 23 Jul 23:09:44 23:13:41 15° 273° (W) 23:17:39 435.675 MHz FM
RS-15 23 Jul 23:22:49 23:33:53 83° 53° (NE) 23:45:19 29.354 - 29.394 USB, Beacon 29.352 USB
SO-50 23 Jul 23:43:59 23:48:15 34° 243° (WSW) 23:52:34 436.795 FM
MaSat-1 23 Jul 23:50:25 23:54:20 42° 307° (NW) 23:58:51 437.345 MHz
UOSAT-12 24 Jul 00:36:22 00:41:08 76° 52° (NE) 00:45:50 437.025 FM, 437.400 FM
Lituanica SAT-1 24 Jul 01:19:48 01:21:57 90° 187° (S) 01:24:06 437.275 MHz beacon
ISS 24 Jul 01:23:20 01:25:40 18° 136° (SE) 01:27:59 145.800 FM
Sapphire 24 Jul 01:35:46 01:40:06 25° 109° (ESE) 01:44:27 437.095 MHz 1200 baud AX-25 AFSK
RS-15 24 Jul 01:36:06 01:45:06 30° 255° (WSW) 01:54:22 29.354 - 29.394 USB, Beacon 29.352 USB
JAS-1B 24 Jul 01:51:27 01:56:33 15° 78° (ENE) 02:01:21 435.800 - 435.900 CW/SSB
Oscar 19 24 Jul 02:08:02 02:12:46 36° 97° (E) 02:17:30 437.125 CW, 437.150 USB
PCSat 24 Jul 02:08:41 02:13:53 50° 115° (ESE) 02:19:06 145.825 MHz
UOSAT-12 24 Jul 02:17:57 02:20:42 16° 251° (WSW) 02:23:26 437.025 FM, 437.400 FM
Oscar 16 24 Jul 02:35:11 02:40:19 65° 102° (ESE) 02:45:27 437.025 USB, Beacon 2401.1428
ITAMSAT 1 24 Jul 02:44:30 02:49:17 36° 97° (E) 02:54:00 435.822 SSB
Lituanica SAT-1 24 Jul 02:53:16 02:54:59 20° 350° (N) 02:56:42 437.275 MHz beacon
Gurwin Techsat 1B 24 Jul 02:53:31 02:57:19 20° 91° (E) 03:01:06 435.225 FM
ISS 24 Jul 02:58:41 03:02:02 80° 332° (NNW) 03:05:25 145.800 FM
AO-27 24 Jul 03:02:01 03:07:07 52° 100° (E) 03:12:09 436.795 MHz FM
OPAL 24 Jul 03:02:41 03:06:55 30° 62° (ENE) 03:11:11 ?
Uribyol 2 24 Jul 03:05:14 03:10:21 58° 101° (E) 03:15:25 436.500 FM
AO-Echo 24 Jul 03:08:39 03:13:49 63° 101° (E) 03:18:46 ?
Sapphire 24 Jul 03:17:52 03:23:10 55° 308° (NW) 03:28:31 437.095 MHz 1200 baud AX-25 AFSK
JAS-1B 24 Jul 03:39:20 03:49:05 67° 100° (E) 03:57:36 435.800 - 435.900 CW/SSB
Oscar 19 24 Jul 03:47:30 03:52:04 33° 295° (WNW) 03:56:37 437.125 CW, 437.150 USB
PCSat 24 Jul 03:52:42 03:57:31 32° 315° (NW) 04:02:22 145.825 MHz
AO-7 24 Jul 04:05:05 04:10:56 20° 89° (E) 04:16:43 29.400 - 29.500 MHz
TMSAT-1 24 Jul 04:11:37 04:16:55 69° 102° (ESE) 04:22:11 436.925 FM
Oscar 16 24 Jul 04:15:35 04:19:12 20° 300° (WNW) 04:22:49 437.025 USB, Beacon 2401.1428
ITAMSAT 1 24 Jul 04:24:07 04:28:43 33° 295° (WNW) 04:33:17 435.822 SSB
Lituanica SAT-1 24 Jul 04:26:34 04:28:16 20° 10° (N) 04:29:59 437.275 MHz beacon
Gurwin Techsat 1B 24 Jul 04:32:28 04:37:43 61° 289° (WNW) 04:42:56 435.225 FM
ISS 24 Jul 04:36:03 04:39:07 31° 353° (N) 04:42:11 145.800 FM
OPAL 24 Jul 04:41:05 04:45:41 38° 260° (W) 04:50:19 ?
AO-27 24 Jul 04:42:13 04:46:18 24° 298° (WNW) 04:50:21 436.795 MHz FM
Uribyol 2 24 Jul 04:45:34 04:49:25 22° 299° (WNW) 04:53:16 436.500 FM
AO-Echo 24 Jul 04:48:23 04:52:05 20° 300° (WNW) 04:55:42 ?
Uosat F 24 Jul 05:00:47 05:05:38 46° 99° (E) 05:10:26 435.120 FM
Sapphire 24 Jul 05:04:51 05:07:51 15° 330° (NNW) 05:10:51 437.095 MHz 1200 baud AX-25 AFSK
